Vigo, Spain

6:35 AM CEST on May 27, 2018 (GMT +0200)
Vigo

Weather History for LEVX - March, 2014

Change the Weather History Date:

Wednesday, March 12, 2014

  Actual Average Record
Temperature  
Mean Temperature 60 °F -  
Max Temperature 73 °F 59 °F 78 °F (2009)
Min Temperature 48 °F 44 °F 35 °F (2013)
Degree Days  
Heating Degree Days 4    
Growing Degree Days 10 (Base 50)    
Moisture  
Dew Point 40 °F    
Average Humidity 50    
Maximum Humidity 76    
Minimum Humidity 19    
Precipitation  
Precipitation 0.00 in 0.23 in - ()
Sea Level Pressure  
Sea Level Pressure 30.18 in    
Wind  
Wind Speed 5 mph ()    
Max Wind Speed 14 mph    
Max Gust Speed -    
Visibility 12.3 miles    
Events      
Averages and records for this station are not official NWS values.
T = Trace of Precipitation, MM = Missing Value Source: Averaged Metar Reports

Daily Weather History Graph

Daily Weather History Graph

Search for Another Location

Airport or City:

Astronomy

Mar. 12, 2014 Rise Set
Actual Time 7:51 AM CET 7:37 PM CET
Civil Twilight 7:23 AM CET 8:05 PM CET
Nautical Twilight 6:51 AM CET 8:37 PM CET
Astronomical Twilight 6:18 AM CET 9:10 PM CET
Moon 3:52 PM CET (3/12) 5:18 AM CET (3/12)
Length of Visible Light 12h 41m
Length of Day
11h 45m
Waxing Gibbous, 84% of the Moon is Illuminated
Mar 12
Waxing Gibbous
Mar 16
Full
Mar 24
Last Quarter
Mar 30
New
Apr 7
First Quarter

Hourly Weather History & Observations

Time (CET) Temp. Dew Point Humidity Pressure Visibility Wind Dir Wind Speed Gust Speed Precip Events Conditions
12:00 AM 55 °F 42 °F 52% 30.14 in - SW 3.5 mph - -  
12:00 AM 55.4 °F 42.8 °F 63% 30.12 in - SW 3.5 mph - N/A   Clear
12:30 AM 55.4 °F 42.8 °F 63% 30.12 in - Variable 1.2 mph - N/A   Clear
1:00 AM 56 °F 41 °F 45% 30.13 in 7 mi SSW 2.3 mph - -  
1:00 AM 57.2 °F 41.0 °F 55% 30.12 in - Variable 2.3 mph - N/A   Clear
1:30 AM 57.2 °F 41.0 °F 55% 30.12 in - Variable 1.2 mph - N/A   Clear
2:00 AM 55 °F 41 °F 47% 30.13 in - South 4.6 mph - -  
2:00 AM 55.4 °F 41.0 °F 58% 30.12 in - SSW 4.6 mph - N/A   Clear
2:30 AM 55.4 °F 41.0 °F 58% 30.12 in - Variable 2.3 mph - N/A   Clear
3:00 AM 53 °F 41 °F 53% 30.14 in - SSW 4.6 mph - -  
3:00 AM 53.6 °F 41.0 °F 62% 30.12 in - SW 4.6 mph - N/A   Clear
3:30 AM 53.6 °F 41.0 °F 62% 30.12 in - SSW 6.9 mph - N/A   Clear
4:00 AM 52 °F 41 °F 56% 30.15 in 6 mi SSW 6.9 mph - -  
4:00 AM 51.8 °F 41.0 °F 67% 30.12 in - SW 6.9 mph - N/A   Clear
4:30 AM 51.8 °F 41.0 °F 67% 30.12 in - SW 8.1 mph - N/A   Clear
5:00 AM 51 °F 41 °F 59% 30.14 in - SSW 6.9 mph - -  
5:00 AM 51.8 °F 41.0 °F 67% 30.12 in - SSW 8.1 mph - N/A   Clear
5:30 AM 51.8 °F 41.0 °F 67% 30.12 in - SW 6.9 mph - N/A   Clear
6:00 AM 50 °F 41 °F 63% 30.16 in - SSW 11.5 mph - -  
6:00 AM 50.0 °F 42.8 °F 76% 30.12 in - SSW 11.5 mph - N/A   Clear
6:30 AM 50.0 °F 42.8 °F 76% 30.15 in - SW 8.1 mph - N/A   Clear
7:00 AM 48 °F 41 °F 69% 30.19 in 6 mi SW 5.8 mph - -  
7:30 AM 48.2 °F 41.0 °F 76% 30.15 in - SW 5.8 mph - N/A   Clear
8:00 AM 48 °F 41 °F 68% 30.19 in - SSW 8.1 mph - -  
8:00 AM 48.2 °F 41.0 °F 76% 30.18 in - SW 5.8 mph - N/A   Clear
8:30 AM 48.2 °F 41.0 °F 76% 30.18 in - SW 6.9 mph - N/A   Clear
9:00 AM 50 °F 41 °F 62% 30.21 in - SW 4.6 mph - -  
9:00 AM 48.2 °F 41.0 °F 76% 30.18 in - SW 4.6 mph - N/A   Clear
9:30 AM 50.0 °F 42.8 °F 76% 30.18 in - SSW 3.5 mph - N/A   Clear
10:00 AM 54 °F 42 °F 53% 30.21 in - South 6.9 mph - -  
10:00 AM 51.8 °F 42.8 °F 71% 30.18 in - SSW 5.8 mph - N/A   Clear
10:30 AM 53.6 °F 42.8 °F 67% 30.21 in - SSW 3.5 mph - N/A   Clear
11:00 AM 58 °F 43 °F 47% 30.21 in - SSW 4.6 mph - -  
11:00 AM 55.4 °F 42.8 °F 63% 30.21 in - SSW 4.6 mph - N/A   Clear
11:30 AM 59.0 °F 44.6 °F 59% 30.21 in - Variable 2.3 mph - N/A   Clear
12:00 PM 63 °F 44 °F 39% 30.20 in - South 4.6 mph - -  
12:00 PM 60.8 °F 46.4 °F 59% 30.21 in - Variable 3.5 mph - N/A   Clear
12:30 PM 62.6 °F 46.4 °F 55% 30.21 in - SSW 5.8 mph - N/A   Clear
1:00 PM 68 °F 44 °F 30% 30.19 in 19 mi South 6.9 mph - -   Clear
1:00 PM 64.4 °F 44.6 °F 49% 30.21 in - South 6.9 mph - N/A   Clear
1:30 PM 66.2 °F 42.8 °F 43% 30.18 in - South 4.6 mph - N/A   Clear
2:00 PM 71 °F 43 °F 25% 30.17 in - South 5.8 mph - -  
2:00 PM 68.0 °F 44.6 °F 43% 30.18 in - South 5.8 mph - N/A   Clear
2:30 PM 69.8 °F 39.2 °F 33% 30.18 in - SSE 5.8 mph - N/A   Clear
3:00 PM 72 °F 38 °F 19% 30.16 in - SW 4.6 mph - -  
3:00 PM 69.8 °F 39.2 °F 33% 30.18 in - SW 3.5 mph - N/A   Clear
3:30 PM 68.0 °F 41.0 °F 37% 30.18 in - WSW 11.5 mph - N/A   Clear
4:00 PM 70 °F 38 °F 20% 30.16 in 16 mi West 11.5 mph - -   Clear
4:00 PM 68.0 °F 35.6 °F 30% 30.18 in - West 11.5 mph - N/A   Clear
4:30 PM 68.0 °F 41.0 °F 37% 30.18 in - West 12.7 mph - N/A   Clear
5:00 PM 66 °F 35 °F 21% 30.17 in - West 13.8 mph - -  
5:00 PM 66.2 °F 35.6 °F 32% 30.18 in - West 13.8 mph - N/A   Clear
5:30 PM 64.4 °F 35.6 °F 34% 30.18 in - West 10.4 mph - N/A   Clear
6:00 PM 65 °F 35 °F 22% 30.17 in - West 10.4 mph - -  
6:00 PM 64.4 °F 35.6 °F 34% 30.18 in - West 10.4 mph - N/A   Clear
6:30 PM 64.4 °F 35.6 °F 34% 30.18 in - West 9.2 mph - N/A   Clear
7:00 PM 63 °F 34 °F 22% 30.19 in 16 mi West 9.2 mph - -   Clear
7:00 PM 62.6 °F 35.6 °F 37% 30.18 in - West 9.2 mph - N/A   Clear
7:30 PM 60.8 °F 35.6 °F 39% 30.21 in - West 8.1 mph - N/A   Clear
8:00 PM 59 °F 35 °F 29% 30.21 in - West 5.8 mph - -  
8:00 PM 59.0 °F 35.6 °F 42% 30.21 in - West 5.8 mph - N/A   Clear
8:30 PM 59.0 °F 33.8 °F 39% 30.21 in - Variable 1.2 mph - N/A   Clear
9:00 PM 56 °F 35 °F 33% 30.23 in - NNW 2.3 mph - -  
9:00 PM 57.2 °F 35.6 °F 44% 30.21 in - Variable 2.3 mph - N/A   Clear
9:30 PM 55.4 °F 35.6 °F 47% 30.21 in - Variable 1.2 mph - N/A   Clear
10:00 PM 54 °F 36 °F 39% 30.24 in 16 mi NNW 2.3 mph - -  
10:00 PM 53.6 °F 37.4 °F 54% 30.21 in - Variable 2.3 mph - N/A   Clear
10:30 PM 55.4 °F 37.4 °F 51% 30.24 in - Variable 2.3 mph - N/A   Clear
11:00 PM 54 °F 37 °F 41% 30.25 in - NNW 2.3 mph - -  
11:00 PM 53.6 °F 39.2 °F 58% 30.24 in - Variable 2.3 mph - N/A   Clear
11:30 PM 53.6 °F 37.4 °F 54% 30.24 in - Variable 1.2 mph - N/A   Clear